weather.gov     
National Weather Service

Terminal Aerodrome Forecast
NWS Homepage
This page is being discontinued on March 12, 2014.
The same data is available at this site. Please update your bookmarks.
Thank you, and we apologize for the inconvenience.
Please send an email to SR-SRH.Webmaster@noaa.gov with any concerns.


Current Version
Previous Version:    01  02  03  04  05  06  07  08  09  10  11  12  13  14  15  16  17  18  19  20  21  22  23  24  25  26  27  28  29  30  
   31  32  33  34  35  36  37  38  39  40  41  42  43  
[Printable]
388
FTUS43 KMQT 191700
TAFSAW
TAF
KSAW 191728Z 1918/2018 19017G30KT P6SM SCT030 BKN100
     FM200000 20014G21KT P6SM -SHRA BKN040
     FM200300 20012G18KT P6SM -SHRA BKN025
     FM200600 20011KT P6SM OVC008
     FM201200 22010KT P6SM OVC015
     FM201500 24010KT P6SM OVC025
      AMD LTD TO CLD VIS AND WIND 2002/2010=


U.S. Dept. of Commerce
NOAA National Weather Service
1325 East West Highway
Silver Spring, MD 20910
E-mail: w-nws.webmaster@noaa.gov
Page last modified: May 16, 2007
NATIONAL WEATHER SERVICE: for Safety, for Work, for Fun - FOR LIFE